Find Starlink 11583

NORAD ID: 62991 Int'l Des: 2025-031 Owner: SPXS Country: US Constellation: starlink operational
別名: STARLINK-11583 [DTC] celestrak
LEOCIRCULAR

現在のビュー

3D地球を読み込み中...

About Starlink 11583

Starlink 11583 (NORAD 62991) is a starlink constellation satellite (v2 mini d2c) launched Feb 11, 2025 by SPXS of US. It operates in LEO, CIRCULAR orbit with a mass of 960.00 kg.

次回通過

Passes for default location (London). Set your location on the main map for personalized predictions.

高度履歴

Loading altitude history...

軌道要素

1 62991U 25031L 26263.91598149 .00122991 00000-0 94497-3 0 9993
2 62991 42.9982 264.9445 0002726 296.2699 63.7888 15.70910830 93452
Epoch: Sep 20, 2026 • Age: 8 hours

現在のステータス

高度 357.3 km
遠地点 / 近地点 N/A
速度 7.70 km/s
衛星直下点 -5.35°S, 7.71°W
打ち上げ日 Feb 11, 2025
運用期間 1.6 years
タイプ internet

技術仕様

分類 Payload
質量 960.00 kg
乾燥質量 910.00 kg
長さ 0.30 m
スパン 29.00 m
形状 ? Box + pan
製造者 SPXS
バスタイプ Starlink V2MD
フェーズステータス In Orbit
所有者/国 SPXS/US

Most Searched